Tracking 26492 objects as of 8-Dec-2022
HD Live streaming from Space Station
objects crossing your sky now

STARLINK-4340

Track STARLINK-4340 now!
10-day predictions
STARLINK-4340 is classified as:


NORAD ID: 53494
Int'l Code: 2022-099AF
Perigee: 568.3 km
Apogee: 572.0 km
Inclination: 97.7 °
Period: 95.9 minutes
Semi major axis: 6941 km
RCS: Unknown
Launch date: August 12, 2022
Source: United States (US)
Launch site: AIR FORCE WESTERN TEST RANGE (AFWTR)
aabbcc
Your satellite tracking list
Your tracking list is empty




NASA's NSSDC Master Catalog

Two Line Element Set (TLE):
1 53494U 22099AF  22341.87685673  .00002043  00000-0  16356-3 0  9992
2 53494  97.6565 100.7068 0002669 358.3631   1.7584 15.01271963 18019
Source of the keplerian elements: AFSPC